Flag for France Weather past 2 weeks in Nantes, France

Now
41 °F

Passing clouds.


Feels Like: 33 °F
Forecast: 29 / 43 °F
Wind: 14 mph from Northwest

Location: Nantes Airport

Current Time: Feb 1, 2015 at 11:57:35 AM

Latest Report: Feb 1, 2015 at 11:30 AM


Visibility: N/A

Pressure: 29.71 "Hg

Humidity: 70%

Dew point: 32 °F

Location of NantesLocation

Historic Weather in Nantes — Graph

°F

Nantes temperature yesterday

Maximum temperature yesterday: 46 °F (at 2:30 PM)
Minimum temperature yesterday: 34 °F (at 8:30 AM)
Average temperature yesterday: 39 °F

Past Weeks' High & Low Weather Summary

 TemperatureHumidityPressure
High54 °F (Jan 28, 2:00 PM)100% (Jan 17, 10:30 AM)30.60 "Hg (Jan 17, 10:30 AM)
Low25 °F (Jan 23, 5:30 AM)57% (Jan 19, 2:30 PM)29.12 "Hg (Jan 30, 4:00 PM)
Average39 °F86%29.95 "Hg
* Reported Jan 17 10:00 AM — Feb 1 10:30 AM, Nantes, Weather by CustomWeather, © 2014

Note: Actual official high and low records may vary slightly from our data, if they occured in-between our weather recording intervals... More about our weather records

Advertising

Nantes weather history for previous 24 hours

 ConditionsComfort  
Time TempWeatherWind HumidityBarometerVisibility
10:30 AM
Feb 1
37 °FSunny.13 mph81%29.68 "Hg10 mi
10:00 AM37 °FPassing clouds.10 mph75%29.68 "HgN/A
9:30 AM36 °FPassing clouds.9 mph81%29.68 "HgN/A
9:00 AM34 °FPassing clouds.7 mph87%29.68 "HgN/A
8:30 AM36 °FPassing clouds.12 mph87%29.65 "HgN/A
8:00 AM36 °FPassing clouds.12 mph87%29.65 "HgN/A
7:30 AM36 °FPassing clouds.15 mph87%29.62 "HgN/A
7:00 AM36 °FPassing clouds.14 mph87%29.62 "HgN/A
6:30 AM34 °FPassing clouds.12 mph93%29.62 "HgN/A
6:00 AM36 °FPassing clouds.15 mph87%29.62 "HgN/A
5:30 AM36 °FPassing clouds.10 mph87%29.59 "HgN/A
5:00 AM36 °FPassing clouds.6 mph87%29.59 "HgN/A
4:30 AM36 °FPassing clouds.5 mph87%29.59 "HgN/A
4:00 AM36 °FPartly cloudy.9 mph93%29.59 "HgN/A
3:30 AM37 °FPassing clouds.10 mph81%29.56 "HgN/A
3:00 AM37 °FLight rain. Partly cloudy.10 mph87%29.56 "HgN/A
2:30 AM37 °FPassing clouds.6 mph87%29.56 "HgN/A
2:00 AM37 °FPassing clouds.9 mph87%29.56 "HgN/A
1:30 AM37 °FPassing clouds.8 mph87%29.53 "HgN/A
1:00 AM37 °FLight rain. Partly cloudy.7 mph87%29.53 "HgN/A
12:30 AM37 °FLight rain. Partly cloudy.9 mph93%29.53 "Hg4 mi
12:00 AM37 °FLight rain. Partly cloudy.12 mph93%29.50 "Hg4 mi
11:30 PM
Jan 31
37 °FLight rain. Partly cloudy.13 mph93%29.50 "HgN/A
11:00 PM37 °FLight rain. Partly cloudy.12 mph93%29.47 "HgN/A
10:30 PM37 °FPartly cloudy.10 mph93%29.47 "HgN/A
9:45 PM39 °FPartly cloudy.9 mph87%29.45 "HgN/A
9:30 PM39 °FLight rain. Partly cloudy.14 mph87%29.45 "HgN/A
9:05 PM39 °FPartly cloudy.12 mph87%29.42 "HgN/A
8:30 PM39 °FPartly cloudy.10 mph93%29.42 "HgN/A
8:00 PM39 °FPartly cloudy.7 mph93%29.39 "HgN/A
7:30 PM41 °FLight rain. Partly cloudy.6 mph87%29.39 "HgN/A
7:00 PM41 °FPartly cloudy.8 mph81%29.36 "HgN/A
6:30 PM39 °FPartly cloudy.9 mph87%29.36 "HgN/A
6:00 PM41 °FPartly sunny.10 mph81%29.33 "HgN/A
5:30 PM43 °FPartly sunny.12 mph81%29.30 "HgN/A
5:00 PM45 °FScattered clouds.10 mph76%29.30 "HgN/A
4:30 PM43 °FBroken clouds.13 mph81%29.30 "HgN/A
4:00 PM46 °FBroken clouds.18 mph62%29.27 "HgN/A
3:30 PM46 °FBroken clouds.17 mph62%29.27 "HgN/A
3:00 PM46 °FScattered clouds.17 mph66%29.27 "HgN/A
2:30 PM46 °FScattered clouds.14 mph66%29.27 "HgN/A
2:00 PM45 °FScattered clouds.14 mph71%29.27 "HgN/A
1:30 PM45 °FPartly sunny.14 mph71%29.27 "HgN/A
1:00 PM45 °FPartly sunny.16 mph76%29.27 "HgN/A
12:30 PM43 °FPartly sunny.14 mph71%29.27 "HgN/A
12:00 PM43 °FPartly sunny.14 mph76%29.27 "HgN/A
11:30 AM43 °FPartly sunny.13 mph76%29.24 "HgN/A
Weather by CustomWeather, © 2014

See weather overviewHow to use our weather pages